Regional Weather Roundup
Issued by NWS

Home | Current Version | Previous Version | Graphics & Text | Print | Product List | Glossary On
Versions: 1 2 3 4 5 6 7 8 9 10 11 12 13 14 15 16 17 18 19 20 21 22 23 24 25 26 27 28 29 30 31 32 33 34 35 36 37 38 39 40 41 42 43 44 45 46 47 48 49 50
000
ASUS43 KDTX 211001
RWRMI
MICHIGAN HOURLY REGIONAL WEATHER ROUNDUP
NATIONAL WEATHER SERVICE DETROIT/PONTIAC MI
600 AM EDT THU SEP 21 2017

NOTE: "FAIR" INDICATES FEW OR NO CLOUDS BELOW 12,000 FEET WITH NO
SIGNIFICANT WEATHER AND/OR OBSTRUCTION TO VISIBILITY.

MIZ047>049-052>055-059>063-066>070-074>076-081>083-211100-
SOUTHEAST LOWER MICHIGAN

CITY           SKY/WX    TMP DP  RH WIND       PRES   REMARKS
ADRIAN         MOCLDY    66  64  93 CALM      30.06R FOG
ALMA           PTCLDY    69  65  86 S9        29.99S
ANN ARBOR      MOCLDY    64  64 100 CALM      30.05S FOG
BAD AXE        CLOUDY    69  65  87 S8        30.05R
CARO           CLOUDY    68  63  84 SE3       30.02S
DETROIT CITY   MOCLDY    68  66  93 CALM      30.06R
DETROIT        CLOUDY    69  66  90 CALM      30.06R FOG
FLINT          CLOUDY    68  64  87 S10       30.03S
GROSSE ILE     CLOUDY    70  67  90 S5        30.05S
HILLSDALE      MOCLDY    68  64  88 SE3       30.05R FOG
HOWELL         CLOUDY    67  65  93 SE6       30.04S

CITY           SKY/WX    TMP DP  RH WIND       PRES   REMARKS
JACKSON        CLEAR     69  66  90 SE3       30.04S FOG
LAMBERTVILLE   PTCLDY    67  65  92 CALM      30.05R FOG
LANSING        CLOUDY    70  65  84 S5        30.02R
LAPEER         FAIR      65  63  92 CALM      30.05S
MASON          CLOUDY    69  66  88 SE8       30.03R
MONROE         PTCLDY    68  66  93 CALM      30.05R FOG
MT. CLEMENS    CLOUDY    67  67 100 E3        30.05R
PONTIAC        MOCLDY    68  66  93 SE5       30.05S
PORT HURON     FOG       64  63  94 CALM      30.06F VSB 1/4
TRI CITIES     MOCLDY    71  67  87 S8        30.00S
MIDLAND        FAIR      70  65  84 SE3       29.98F
TROY           MOCLDY    67  65  93 CALM      30.07F
SAGINAW HB     CLOUDY    68  64  88 SE7       29.99F
$$
MIZ043>046-050>051-056>058-064>065-071>073-077>080-211100-
SOUTHWEST LOWER MICHIGAN

CITY           SKY/WX    TMP DP  RH WIND       PRES   REMARKS
BATTLE CREEK   MOCLDY    70  68  93 S6        30.03R
BENTON HARBOR  CLOUDY    72  67  84 S6        29.98S
BIG RAPIDS     CLOUDY    67  64  93 SE3       29.97S
COLDWATER      CLOUDY    70  70 100 CALM      30.04R
FREMONT        FAIR      71  69  95 S5        29.96R
HOLLAND        CLOUDY    70  67  90 SE7       29.97S
GRAND RAPIDS   CLOUDY    69  67  93 SE6       29.98F
IONIA          FAIR      70  66  88 S9        29.99S
KALAMAZOO      PTCLDY    71  66  84 S5        30.02R
LUDINGTON      CLOUDY    67  63  86 CALM      29.96R
MARSHALL       CLOUDY    69  69  98 S3        30.03R
MOUNT PLEASANT PTCLDY    71  65  81 S3        29.98R
MUSKEGON       CLOUDY    72  68  87 SE6       29.96R
SOUTH HAVEN    CLOUDY    72  68  87 CALM      29.98S
$$
MIZ016>042-211100-
NORTHERN LOWER MICHIGAN

CITY           SKY/WX    TMP DP  RH WIND       PRES   REMARKS
ALPENA         MOCLDY    68  67  96 E7        30.03S
BEAVER ISLAND  CLOUDY    67  67  98 E6        29.98R
BELLAIRE       CLOUDY    67  65  94 CALM      29.97R
CADILLAC       CLOUDY    71  65  81 CALM      30.01R
CHARLEVOIX     PTCLDY    67  67 100 CALM      30.01R
FRANKFORT      MOCLDY    67  67 100 CALM      29.97R
GAYLORD        CLOUDY    65  62  90 VRB3      30.01R
GRAYLING       PTCLDY    67  64  89 CALM      30.01R
HARBOR SPRINGS MOCLDY    68  66  94 E9        29.97R
HOUGHTON LAKE  PTCLDY    67  64  90 SW3       30.03R
MANISTEE       MOCLDY    67  65  93 CALM      29.97R
OSCODA         CLOUDY    69  68  97 CALM      30.02R
PELLSTON       CLOUDY    68  66  93 VRB6      29.99R
ROGERS CITY    CLOUDY    68  65  91 SE10      30.01F
TRAVERSE CITY  CLOUDY    72  66  81 CALM      29.95R
$$
MIZ007>008-015-211100-
EASTERN UPPER MICHIGAN

CITY           SKY/WX    TMP DP  RH WIND       PRES   REMARKS
KINROSS        CLOUDY    67  66  97 SE8       30.01R
MACKINAC ISLAN MOCLDY    67  67 100 E13G21    29.98F
NEWBERRY       CLOUDY    64  63  97 CALM      29.98R FOG
S. S. MARIE    CLOUDY    68  66  93 E3        30.00R
MUNISING         N/A     62  62 100 N12       29.98S
$$
MIZ004>006-011>014-085-211100-
CENTRAL UPPER MICHIGAN

CITY           SKY/WX    TMP DP  RH WIND       PRES   REMARKS
MANISTIQUE     CLOUDY    65  59  81 N7        29.96R
ESCANABA       CLOUDY    64  61  90 VRB5      29.98R
MENOMINEE      CLOUDY    66  65  96 N5        29.98R
SAWYER-GWINN   CLEAR     61  58  91 N12       30.01R
$$
MIZ001>003-009>011-084-211100-
WESTERN UPPER MICHIGAN

CITY           SKY/WX    TMP DP  RH WIND       PRES   REMARKS
IRON MOUNTAIN  CLEAR     59  56  89 NW6       29.99R
HOUGHTON       FOG       48  47  96 NW3       30.02R VSB 1/4
COPPER HARBOR    N/A     56  54  93 CALM      30.02R
IRONWOOD       CLEAR     45  43  93 CALM      30.05R FOG
$$

ABBREVIATIONS USED IN REMARKS
   TC - TEMPERATURE IN CELSIUS
  WCI - WIND CHILL INDEX
   HX - HEAT INDEX
  VSB - VISIBILITY




USA.gov is the U.S. government's official web portal to all federal, state and local government web resources and services.